Regional Weather Roundup
Issued by NWS

Home | Current Version | Previous Version | Text Only | Print | Product List | Glossary On
Versions: 1 2 3 4 5 6 7 8 9 10 11 12 13 14 15 16 17 18 19 20 21 22 23 24 25 26 27 28 29 30 31 32 33 34 35 36 37 38 39 40 41 42 43 44 45 46 47 48 49 50
000
ASUS44 KLIX 131711
RWRLA
LOUISIANA WEATHER ROUNDUP
NATIONAL WEATHER SERVICE NEW ORLEANS LA
1100 AM CST SAT FEB 13 2016

NOTE: "FAIR" INDICATES FEW OR NO CLOUDS BELOW 12,000 FEET WITH NO
      SIGNIFICANT WEATHER AND/OR OBSTRUCTIONS TO VISIBILITY.
      SKY/WX - SKY CONDITION AND SIGNIFICANT WEATHER.
      TMP - AIR TEMPERATURE.    DP   - DEWPOINT TEMPERATURE.
      RH  - RELATIVE HUMIDITY.  PRES - PRESSURE.
      HX  - HEAT INDEX.         WCI  - WIND CHILL INDEX.

*  THESE STATIONS ARE NOT NWS OR FAA STATIONS AND ARE NOT UNDER
   NWS QUALITY CONTROL.

LAZ040-048-061>063-065-066-069-131800-
SOUTHEAST LOUISIANA

CITY           SKY/WX    TMP DP  RH WIND       PRES   REMARKS
N.O. AUDUBON     N/A     58  32  37 MISG        N/A
N.O. INTL ARPT MOSUNNY   55  31  39 NE12      30.45F
N.O. LAKEFRONT SUNNY     52  31  44 NE10      30.47R
N.O. DOWNTOWN* NOT AVBL
RESERVE*       FAIR      57  33  40 E9        30.45F
SLIDELL        SUNNY     56  32  40 N10       30.45S
BATON ROUGE    SUNNY     56  31  38 E9        30.44F
BOOTHVILLE     SUNNY     56  40  55 NE13      30.45R
BELLE CHASSE   SUNNY     55  34  45 NE12      30.45S
BOGALUSA*        N/A     54  29  37 NE9       30.48F
GALLIANO*      SUNNY     59  38  45 NE10G17   30.44S
NEW ROADS*     FAIR      55  33  44 NE12      30.45F
GONZALES*      FAIR      57  32  39 E5        30.43F
HAMMOND*       SUNNY     55  30  38 N5        30.46S
HOUMA*         SUNNY     57  36  44 NE10      30.43F
PORT FOURCHON* SUNNY     57  39  51 E17       30.43S

$$

LAZ041-044-053-054-131800-
SOUTHWEST LOUISIANA

CITY           SKY/WX    TMP DP  RH WIND       PRES   REMARKS
LAKE CHARLES   SUNNY     60  35  39 E13       30.42S
LAFAYETTE      SUNNY     59  35  40 VRB5      30.42F
PATTERSON      SUNNY     59  36  41 NE12      30.44F
SALT POINT       N/A     60  37  42 VRB5      30.41F
NEW IBERIA     SUNNY     60  34  37 E12       30.43F
CHENAULT AIRPK NOT AVBL

$$

LAZ027-028-131800-
CENTRAL LOUISIANA

CITY           SKY/WX    TMP DP  RH WIND       PRES   REMARKS
FORT POLK      SUNNY     55  34  44 VRB7      30.42F
ALEXANDRIA INT SUNNY     53  32  44 E14       30.46S
ALEXANDRIA     SUNNY     54  32  43 VRB7      30.47F

$$

LAZ001-002-131800-
NORTHWEST LOUISIANA

CITY           SKY/WX    TMP DP  RH WIND       PRES   REMARKS
SHREVEPORT     SUNNY     51  29  42 SE10      30.48R
BARKSDALE AFB  SUNNY     50  29  45 NE8       30.48S
DTN SHREVEPORT SUNNY     50  27  40 E10       30.49R

$$

LAZ014-016-131800-
NORTHEAST LOUISIANA

CITY           SKY/WX    TMP DP  RH WIND       PRES   REMARKS
MONROE         SUNNY     45  27  49 NE15      30.55S
TALLULAH       SUNNY     47  24  40 NE12      30.52S

$$




USA.gov is the U.S. government's official web portal to all federal, state and local government web resources and services.